Weather History for KW99 - April, 2013

Change the Weather History Date:

Sunday, April 7, 2013

  Actual Average (KEKN) Record (KEKN)
Temperature  
Mean Temperature 62 °F 47 °F  
Max Temperature 77 °F 60 °F 85 °F (2010)
Min Temperature 46 °F 34 °F 13 °F (1950)
Degree Days  
Heating Degree Days 4 18  
Month to date heating degree days 133  
Since 1 July heating degree days 5234  
Cooling Degree Days 0 0  
Month to date cooling degree days 0  
Year to date cooling degree days 0  
Growing Degree Days 12 (Base 50)    
Moisture  
Dew Point 33 °F    
Average Humidity 37    
Maximum Humidity 74    
Minimum Humidity 23    
Precipitation  
Precipitation 0.00 in 0.13 in 1.14 in (2003)
Month to date precipitation 0.89  
Year to date precipitation 11.18  
Snow  
Snow 0.00 in - - ()
Month to date snowfall  
Since 1 September snowfall  
Snow Depth -    
Sea Level Pressure  
Sea Level Pressure 30.05 in    
Wind  
Wind Speed 5 mph (South)    
Max Wind Speed 18 mph    
Max Gust Speed 23 mph    
Visibility 10 miles    
Events Thunderstorm    
T = Trace of Precipitation, MM = Missing Value Source: NWS Daily Summary

Daily Weather History Graph

Daily Weather History Graph

Search for Another Location

Airport or City:

Trip Planner

Search our weather history database for the weather conditions in past years. The results will help you decide how hot, cold, wet, or windy it might be!

Date:

Astronomy

Apr. 07, 2013 Rise Set
Actual Time 6:51 AM EDT 7:46 PM EDT
Civil Twilight 6:24 AM EDT 8:13 PM EDT
Nautical Twilight 5:52 AM EDT 8:45 PM EDT
Astronomical Twilight 5:18 AM EDT 9:19 PM EDT
Moon 5:06 AM EDT (4/7) 5:17 PM EDT (4/7)
Length of Visible Light 13h 49m
Length of Day
12h 54m
Waning Crescent, 8% of the Moon is Illuminated
Apr 7
Waning Crescent
Apr 10
New
Apr 18
First Quarter
Apr 25
Full
May 2
Last Quarter

Hourly Weather History & Observations

Time (EDT) Temp. Dew Point Humidity Pressure Visibility Wind Dir Wind Speed Gust Speed Precip Events Conditions
12:15 AM 46.4 °F 30.9 °F 55% 30.17 in 10.0 mi Calm Calm - N/A   Clear
12:35 AM 48.4 °F 27.1 °F 44% 30.16 in 10.0 mi Calm Calm - N/A   Clear
12:55 AM 47.7 °F 29.3 °F 49% 30.16 in 10.0 mi Calm Calm - N/A   Clear
1:15 AM 49.3 °F 25.5 °F 40% 30.15 in 10.0 mi Calm Calm - N/A   Clear
1:35 AM 53.1 °F 21.4 °F 29% 30.15 in 10.0 mi Calm Calm - N/A   Clear
1:55 AM 53.4 °F 20.8 °F 28% 30.15 in 10.0 mi Calm Calm - N/A   Clear
2:15 AM 53.6 °F 20.8 °F 28% 30.14 in 10.0 mi SE 6.9 mph - N/A   Clear
2:35 AM 53.4 °F 20.8 °F 28% 30.14 in 10.0 mi SE 3.5 mph - N/A   Clear
2:55 AM 54.1 °F 19.8 °F 26% 30.14 in 10.0 mi Calm Calm - N/A   Clear
3:15 AM 54.0 °F 20.3 °F 27% 30.13 in 10.0 mi South 5.8 mph - N/A   Clear
3:35 AM 54.0 °F 20.7 °F 27% 30.13 in 10.0 mi South 5.8 mph - N/A   Clear
3:55 AM 54.5 °F 20.8 °F 27% 30.12 in 10.0 mi SSE 4.6 mph - N/A   Clear
4:15 AM 54.5 °F 20.7 °F 27% 30.12 in 10.0 mi SSE 5.8 mph - N/A   Clear
4:35 AM 54.0 °F 20.8 °F 27% 30.12 in 10.0 mi SE 5.8 mph - N/A   Clear
4:55 AM 53.6 °F 21.6 °F 29% 30.11 in 10.0 mi SSE 8.1 mph - N/A   Clear
5:15 AM 52.2 °F 22.6 °F 32% 30.11 in 10.0 mi SE 9.2 mph - N/A   Clear
5:35 AM 52.2 °F 23.5 °F 33% 30.11 in 10.0 mi SSE 8.1 mph - N/A   Clear
5:55 AM 52.0 °F 23.9 °F 34% 30.11 in 10.0 mi SSE 8.1 mph - N/A   Clear
6:15 AM 51.6 °F 25.5 °F 36% 30.11 in 10.0 mi SSE 11.5 mph - N/A   Clear
6:35 AM 51.8 °F 26.2 °F 37% 30.11 in 10.0 mi SSE 11.5 mph - N/A   Clear
6:55 AM 51.6 °F 27.0 °F 38% 30.11 in 10.0 mi SSE 11.5 mph 17.3 mph N/A   Clear
7:15 AM 52.2 °F 27.1 °F 38% 30.11 in 10.0 mi South 10.4 mph - N/A   Clear
7:35 AM 52.5 °F 27.7 °F 38% 30.11 in 10.0 mi SSE 8.1 mph 17.3 mph N/A   Clear
7:55 AM 52.7 °F 28.0 °F 39% 30.11 in 10.0 mi South 10.4 mph 18.4 mph N/A   Clear
8:15 AM 53.1 °F 28.8 °F 39% 30.11 in 10.0 mi South 9.2 mph - N/A   Clear
8:35 AM 52.9 °F 29.8 °F 41% 30.11 in 10.0 mi South 4.6 mph - N/A   Clear
8:55 AM 53.4 °F 30.4 °F 41% 30.11 in 10.0 mi SSE 8.1 mph - N/A   Clear
9:15 AM 53.6 °F 30.9 °F 42% 30.10 in 10.0 mi SSE 9.2 mph - N/A   Clear
9:35 AM 54.5 °F 31.5 °F 42% 30.10 in 10.0 mi South 5.8 mph - N/A   Clear
9:55 AM 54.9 °F 32.0 °F 42% 30.09 in 10.0 mi South 11.5 mph - N/A   Clear
10:15 AM 55.2 °F 32.5 °F 42% 30.09 in 10.0 mi South 8.1 mph 16.1 mph N/A   Clear
10:35 AM 55.9 °F 32.7 °F 41% 30.08 in 10.0 mi South 10.4 mph 16.1 mph N/A   Clear
10:55 AM 57.0 °F 33.6 °F 41% 30.07 in 10.0 mi South 9.2 mph - N/A   Clear
11:15 AM 58.3 °F 33.4 °F 39% 30.07 in 10.0 mi South 4.6 mph - N/A   Clear
11:35 AM 59.0 °F 34.2 °F 39% 30.07 in 10.0 mi SSW 6.9 mph - N/A   Clear
11:55 AM 60.3 °F 34.7 °F 38% 30.06 in 10.0 mi South 3.5 mph - N/A   Clear
12:15 PM 61.7 °F 35.4 °F 38% 30.05 in 10.0 mi South 5.8 mph - N/A   Clear
12:35 PM 65.1 °F 36.7 °F 35% 30.03 in 10.0 mi South 8.1 mph - N/A   Clear
12:55 PM 66.0 °F 36.0 °F 33% 30.02 in 10.0 mi SSW 11.5 mph 17.3 mph N/A   Clear
1:15 PM 69.4 °F 37.2 °F 31% 30.00 in 10.0 mi SSE 11.5 mph 18.4 mph N/A   Clear
1:35 PM 70.7 °F 37.9 °F 30% 29.99 in 10.0 mi SE 15.0 mph - N/A   Clear
1:55 PM 71.6 °F 37.4 °F 29% 29.97 in 10.0 mi SE 18.4 mph 23.0 mph N/A   Clear
2:15 PM 73.6 °F 37.6 °F 27% 29.96 in 10.0 mi South 10.4 mph 21.9 mph N/A   Clear
2:35 PM 75.2 °F 37.0 °F 25% 29.96 in 10.0 mi South 9.2 mph 20.7 mph N/A   Clear
2:55 PM 75.6 °F 37.4 °F 25% 29.95 in 10.0 mi South 11.5 mph 20.7 mph N/A   Scattered Clouds
3:15 PM 77.0 °F 37.2 °F 24% 29.94 in 10.0 mi South 16.1 mph 20.7 mph N/A   Mostly Cloudy
3:35 PM 77.2 °F 37.0 °F 23% 29.94 in 10.0 mi South 12.7 mph 18.4 mph N/A   Scattered Clouds
3:55 PM 77.4 °F 37.9 °F 24% 29.93 in 10.0 mi SW 10.4 mph 16.1 mph N/A   Mostly Cloudy
4:15 PM 77.5 °F 38.7 °F 25% 29.93 in 10.0 mi WSW 12.7 mph 17.3 mph N/A   Mostly Cloudy
4:35 PM 75.4 °F 38.5 °F 26% 29.94 in 10.0 mi WSW 6.9 mph - N/A   Overcast
4:55 PM 75.2 °F 40.6 °F 29% 29.94 in 10.0 mi West 6.9 mph - N/A   Overcast
5:15 PM 74.8 °F 37.2 °F 26% 29.94 in 10.0 mi West 15.0 mph 18.4 mph N/A   Overcast
5:35 PM 74.3 °F 39.4 °F 28% 29.95 in 10.0 mi WSW 8.1 mph - N/A   Overcast
5:55 PM 74.3 °F 39.2 °F 28% 29.96 in 10.0 mi WSW 5.8 mph - N/A   Overcast
6:15 PM 72.5 °F 39.6 °F 30% 29.96 in 10.0 mi West 8.1 mph - N/A   Overcast
6:35 PM 72.9 °F 40.3 °F 31% 29.96 in 10.0 mi West 5.8 mph - N/A Thunderstorm Mostly Cloudy
6:55 PM 74.3 °F 40.3 °F 29% 29.97 in 10.0 mi WSW 3.5 mph - N/A   Mostly Cloudy
7:15 PM 73.0 °F 38.5 °F 29% 29.97 in 10.0 mi SW 4.6 mph - N/A   Scattered Clouds
7:35 PM 71.8 °F 38.3 °F 30% 29.97 in 10.0 mi West 6.9 mph - N/A   Scattered Clouds
7:55 PM 68.4 °F 40.3 °F 36% 29.97 in 10.0 mi Calm Calm - N/A   Mostly Cloudy
8:15 PM 69.1 °F 38.1 °F 32% 29.98 in 10.0 mi West 3.5 mph - N/A   Scattered Clouds
8:35 PM 67.3 °F 38.3 °F 35% 29.99 in 10.0 mi SW 4.6 mph - N/A   Clear
8:55 PM 61.2 °F 41.2 °F 48% 30.00 in 10.0 mi Calm Calm - N/A   Scattered Clouds
9:15 PM 59.7 °F 41.5 °F 51% 30.01 in 10.0 mi Calm Calm - N/A   Clear
9:35 PM 57.7 °F 41.9 °F 56% 30.02 in 10.0 mi Calm Calm - N/A   Clear
9:55 PM 56.3 °F 41.9 °F 59% 30.02 in 10.0 mi Calm Calm - N/A   Clear
10:15 PM 54.9 °F 42.6 °F 63% 30.02 in 10.0 mi Calm Calm - N/A   Clear
10:35 PM 54.1 °F 42.4 °F 65% 30.03 in 10.0 mi Calm Calm - N/A   Scattered Clouds
10:55 PM 54.1 °F 42.6 °F 65% 30.02 in 10.0 mi Calm Calm - N/A   Scattered Clouds
11:15 PM 52.5 °F 43.2 °F 70% 30.02 in 10.0 mi Calm Calm - N/A   Mostly Cloudy
11:35 PM 53.2 °F 43.7 °F 70% 30.03 in 10.0 mi Calm Calm - N/A   Overcast
11:55 PM 51.6 °F 43.7 °F 74% 30.03 in 10.0 mi Calm Calm - N/A   Overcast